CW0630 Weather Reports


Display with metric or nautical units.
time (UTC)temp
F
wind
direction
speed
MPH
gust
MPH
rain 1hr
in
rain 24hr
in
rain mn
in
humidity
%
barometer
mb
20170820034958 74 203 0.0 0.0 0.00 0.17 0.17 88 1015.4
20170820034504 74 203 0.0 0.0 0.00 0.17 0.17 88 1015.4
20170820034008 75 203 0.0 0.0 0.00 0.17 0.17 87 1015.2
20170820033511 75 203 0.0 0.0 0.00 0.17 0.17 86 1015.2
20170820033012 75 203 0.0 0.0 0.00 0.17 0.17 86 1015.2
20170820032458 75 202 0.0 0.0 0.00 0.17 0.17 87 1015.2
20170820032013 75 202 0.0 0.0 0.00 0.17 0.17 87 1015.2
20170820031459 75 205 0.0 0.0 0.00 0.17 0.17 87 1015.2
20170820031000 75 205 0.0 0.0 0.00 0.17 0.17 87 1015.2
20170820030504 75 205 0.0 0.0 0.00 0.17 0.17 87 1015.0
20170820030009 75 205 0.0 0.0 0.00 0.17 0.17 87 1015.0
20170820025515 75 205 0.0 0.0 0.00 0.17 0.17 87 1014.9
20170820025013 75 205 0.0 0.0 0.00 0.17 0.17 87 1014.9
20170820024458 75 205 0.0 0.0 0.00 0.17 0.17 87 1014.9
20170820023958 75 205 0.0 0.0 0.00 0.17 0.17 86 1015.0
20170820023503 76 205 0.0 0.0 0.00 0.17 0.17 86 1014.8
20170820023003 76 205 0.0 0.0 0.00 0.17 0.17 85 1014.9
20170820022503 76 205 0.0 0.0 0.00 0.17 0.17 86 1014.9
20170820022002 75 253 0.0 0.0 0.00 0.17 0.17 86 1014.8
20170820021505 75 253 0.0 0.0 0.00 0.17 0.17 86 1014.8
20170820021003 75 253 0.0 0.0 0.00 0.17 0.17 85 1014.8
20170820020507 76 253 0.0 0.0 0.00 0.17 0.17 85 1014.7
20170820020013 76 253 0.0 0.0 0.00 0.18 0.17 85 1014.8
20170820015458 76 253 0.0 0.0 0.00 0.18 0.17 84 1014.7
20170820015016 76 253 0.0 0.0 0.00 0.18 0.17 84 1014.6
20170820014500 76 253 0.0 0.0 0.00 0.18 0.17 83 1014.6
20170820014002 77 253 0.0 0.0 0.00 0.18 0.17 83 1014.4
20170820013508 77 253 0.0 0.0 0.00 0.18 0.17 82 1014.4
20170820013009 77 253 0.0 0.0 0.00 0.18 0.17 82 1014.2
20170820012515 77 253 0.0 0.0 0.00 0.18 0.17 82 1014.2
20170820012012 77 253 0.0 0.0 0.00 0.18 0.17 82 1014.1
20170820011516 77 253 0.0 0.0 0.00 0.18 0.17 81 1014.1
20170820010957 77 253 0.0 0.0 0.00 0.18 0.17 82 1014.2
20170820010505 77 253 0.0 0.0 0.00 0.18 0.17 80 1014.1
20170820010006 77 253 0.0 0.0 0.00 0.19 0.17 80 1014.1
20170820005512 77 253 0.0 0.0 0.00 0.19 0.17 80 1014.0
20170820005009 78 253 0.0 0.0 0.00 0.19 0.17 79 1014.0
20170820004516 78 253 0.0 0.0 0.00 0.19 0.17 78 1013.9
20170820003957 78 253 0.0 0.0 0.00 0.19 0.17 78 1013.9
20170820003504 78 253 0.0 0.0 0.00 0.19 0.17 77 1013.9
20170820003007 78 253 0.0 0.0 0.00 0.19 0.17 76 1013.9
20170820002513 79 253 0.0 0.0 0.00 0.19 0.17 75 1013.7
20170820002010 79 253 0.0 0.0 0.00 0.19 0.17 75 1013.8
20170820001516 79 253 0.0 0.0 0.00 0.19 0.17 75 1013.7
20170820001003 80 253 0.0 0.0 0.00 0.19 0.17 74 1013.6
20170820000505 80 253 0.0 0.0 0.00 0.19 0.17 72 1013.5
20170820000007 80 253 0.0 0.0 0.00 0.59 0.17 71 1013.6
20170819235513 81 253 0.0 0.0 0.00 0.59 0.17 70 1013.6
20170819235013 81 253 0.0 0.0 0.00 0.59 0.17 70 1013.6
20170819234459 81 253 0.0 0.0 0.00 0.59 0.17 69 1013.6
20170819233959 82 250 0.0 0.0 0.00 0.59 0.17 68 1013.5
20170819233501 82 250 0.0 2.0 0.00 0.59 0.17 66 1013.6
20170819233003 83 225 0.0 2.0 0.00 0.59 0.17 66 1013.6
20170819232508 83 197 0.0 2.0 0.00 0.59 0.17 65 1013.5
20170819232007 83 192 0.0 2.0 0.00 0.59 0.17 66 1013.4
20170819231457 83 188 0.0 2.0 0.00 0.59 0.17 64 1013.4
20170819230958 84 182 0.0 2.0 0.00 0.59 0.17 65 1013.4
20170819230500 84 208 0.0 1.0 0.00 0.59 0.17 63 1013.3
20170819230000 84 201 0.0 0.0 0.00 0.59 0.17 63 1013.3
20170819225506 84 187 0.0 4.0 0.00 0.59 0.17 63 1013.3
20170819225006 85 161 0.0 5.0 0.00 0.59 0.17 60 1013.2
20170819224511 85 230 1.0 5.0 0.00 0.59 0.17 59 1013.3
20170819224011 84 158 1.0 5.0 0.00 0.59 0.17 61 1013.3
20170819223514 85 241 0.0 3.0 0.00 0.59 0.17 63 1013.3
20170819223016 85 238 0.0 3.0 0.00 0.59 0.17 59 1013.2
20170819222503 85 195 0.0 2.0 0.00 0.59 0.17 62 1013.2
20170819222001 86 194 0.0 4.0 0.00 0.59 0.17 59 1013.2
20170819221508 86 222 0.0 4.0 0.00 0.59 0.17 58 1013.2
20170819221009 86 282 1.0 4.0 0.00 0.59 0.17 56 1013.2
20170819220512 87 128 0.0 4.0 0.00 0.59 0.17 57 1013.2
20170819220012 87 150 0.0 4.0 0.00 0.59 0.17 57 1013.3
20170819215457 87 241 1.0 5.0 0.00 0.59 0.17 56 1013.2
20170819215014 87 130 2.0 7.0 0.00 0.59 0.17 55 1013.2
20170819214457 88 135 3.0 7.0 0.00 0.59 0.17 54 1013.2
20170819213959 88 145 1.0 9.0 0.00 0.59 0.17 57 1013.2
20170819213500 88 139 3.0 9.0 0.00 0.59 0.17 55 1013.2
20170819213002 88 278 3.0 10.0 0.00 0.59 0.17 56 1013.3
20170819212509 88 148 3.0 10.0 0.00 0.59 0.17 55 1013.2
20170819212008 88 141 4.0 9.0 0.00 0.59 0.17 55 1013.2
20170819211515 89 168 1.0 8.0 0.00 0.59 0.17 55 1013.2
20170819211017 89 242 1.0 7.0 0.00 0.59 0.17 55 1013.3
20170819210515 89 159 2.0 5.0 0.00 0.59 0.17 54 1013.3
20170819210017 89 146 2.0 6.0 0.00 0.59 0.17 55 1013.3
20170819205503 89 152 1.0 6.0 0.00 0.59 0.17 54 1013.2
20170819205000 89 111 1.0 6.0 0.00 0.59 0.17 53 1013.1
20170819204505 88 184 2.0 5.0 0.00 0.59 0.17 54 1013.1
20170819204006 88 320 1.0 5.0 0.00 0.59 0.17 59 1013.2
20170819203509 87 207 1.0 4.0 0.00 0.59 0.17 60 1013.2
20170819203011 87 133 0.0 9.0 0.00 0.59 0.17 55 1013.2
20170819202457 88 125 3.0 9.0 0.00 0.59 0.17 56 1013.2
20170819201959 88 149 0.0 4.0 0.00 0.59 0.17 56 1013.2
20170819201504 88 174 1.0 4.0 0.00 0.59 0.17 58 1013.2
20170819201004 89 198 0.0 9.0 0.00 0.59 0.17 57 1013.1
20170819200508 89 253 2.0 9.0 0.00 0.59 0.17 55 1013.0
20170819200010 89 187 3.0 7.0 0.00 0.59 0.17 55 1013.1
20170819195515 89 114 1.0 3.0 0.00 0.59 0.17 59 1013.2
20170819195016 89 254 0.0 3.0 0.00 0.59 0.17 59 1013.2
20170819194457 89 151 1.0 6.0 0.00 0.59 0.17 56 1013.1
20170819193958 89 169 2.0 8.0 0.00 0.59 0.17 54 1013.1
20170819193500 89 159 0.0 3.0 0.00 0.59 0.17 54 1013.1
20170819193001 88 148 0.0 6.0 0.00 0.59 0.17 58 1013.1
20170819192506 88 122 1.0 6.0 0.00 0.59 0.17 58 1013.0
20170819192007 87 146 1.0 4.0 0.00 0.59 0.17 60 1013.2
20170819191512 87 168 0.0 3.0 0.00 0.59 0.17 58 1013.4
20170819191014 88 307 0.0 7.0 0.00 0.59 0.17 56 1013.5
20170819190517 89 101 4.0 7.0 0.00 0.59 0.17 53 1013.6
20170819185959 89 282 0.0 5.0 0.00 0.59 0.17 55 1013.7
20170819185505 89 120 1.0 5.0 0.00 0.59 0.17 57 1013.7
20170819185004 88 197 1.0 3.0 0.00 0.59 0.17 56 1013.7
20170819184510 87 223 1.0 3.0 0.00 0.59 0.17 56 1013.7
20170819184011 86 274 0.0 0.0 0.00 0.59 0.17 57 1013.7
20170819183515 86 272 0.0 0.0 0.00 0.59 0.17 65 1013.9
20170819183015 86 220 0.0 0.0 0.00 0.59 0.17 64 1013.8
20170819182505 86 220 0.0 0.0 0.00 0.59 0.17 60 1013.9
20170819182005 87 323 0.0 1.0 0.00 0.59 0.17 60 1014.0
20170819181511 87 160 0.0 1.0 0.00 0.59 0.17 55 1014.1
20170819181005 87 216 0.0 0.0 0.00 0.59 0.17 58 1014.2
20170819180510 87 230 0.0 2.0 0.00 0.59 0.17 57 1014.2
20170819180010 87 332 0.0 2.0 0.00 0.59 0.17 58 1014.3
20170819175516 87 219 0.0 1.0 0.00 0.59 0.17 54 1014.3
20170819175015 88 206 0.0 2.0 0.00 0.59 0.17 54 1014.3
20170819174500 88 187 0.0 2.0 0.00 0.59 0.17 55 1014.3
20170819174002 88 4 0.0 2.0 0.00 0.59 0.17 59 1014.4
20170819173506 87 158 0.0 2.0 0.00 0.59 0.17 57 1014.4
20170819173005 87 149 0.0 2.0 0.00 0.59 0.17 54 1014.5
20170819172515 87 196 0.0 2.0 0.00 0.59 0.17 59 1014.5
20170819172013 88 193 0.0 3.0 0.00 0.59 0.17 60 1014.4
20170819171518 87 157 0.0 4.0 0.00 0.59 0.17 61 1014.5
20170819170958 87 148 1.0 4.0 0.00 0.59 0.17 58 1014.6
20170819170501 87 153 0.0 2.0 0.00 0.59 0.17 58 1014.6
20170819170003 87 77 0.0 2.0 0.00 0.59 0.17 59 1014.6
20170819165509 88 299 1.0 3.0 0.00 0.59 0.17 56 1014.6
20170819165007 87 102 0.0 3.0 0.00 0.59 0.17 60 1014.5
20170819164513 87 346 0.0 3.0 0.00 0.59 0.17 60 1014.5
20170819164015 87 353 1.0 3.0 0.00 0.59 0.17 59 1014.6
20170819163459 87 184 0.0 3.0 0.00 0.59 0.17 57 1014.6
20170819163004 87 276 0.0 3.0 0.00 0.59 0.17 62 1014.7
20170819162510 86 334 0.0 2.0 0.00 0.59 0.17 59 1014.7
20170819162008 86 53 0.0 2.0 0.00 0.59 0.17 63 1014.7
20170819161512 86 198 0.0 3.0 0.00 0.59 0.17 65 1014.7
20170819161013 86 112 1.0 3.0 0.00 0.59 0.17 66 1014.7
20170819160517 86 146 1.0 3.0 0.00 0.59 0.17 60 1014.7
20170819155959 87 109 0.0 3.0 0.00 0.59 0.17 61 1014.7
20170819155504 86 189 0.0 2.0 0.00 0.59 0.17 63 1014.7
20170819155006 86 177 0.0 0.0 0.00 0.59 0.17 65 1014.6
20170819154511 85 353 0.0 2.0 0.00 0.59 0.17 68 1014.6
20170819154012 85 309 0.0 2.0 0.00 0.59 0.17 64 1014.6
20170819153514 85 36 1.0 2.0 0.00 0.59 0.17 66 1014.7
20170819152959 85 193 0.0 2.0 0.00 0.59 0.17 66 1014.6
20170819152505 86 185 0.0 2.0 0.00 0.59 0.17 67 1014.5
20170819152005 86 339 0.0 2.0 0.00 0.59 0.17 68 1014.6
20170819151510 85 160 0.0 3.0 0.00 0.59 0.17 65 1014.4
20170819151010 85 344 0.0 3.0 0.00 0.59 0.17 66 1014.4
20170819150515 84 341 0.0 3.0 0.00 0.59 0.17 71 1014.3
20170819150022 84 20 0.0 4.0 0.00 0.59 0.17 71 1014.3
20170819145504 83 27 0.0 4.0 0.00 0.59 0.17 69 1014.3
20170819145005 83 160 0.0 2.0 0.00 0.59 0.17 72 1014.3
20170819144511 83 341 1.0 2.0 0.00 0.59 0.17 73 1014.2
20170819144013 83 135 0.0 2.0 0.00 0.59 0.17 75 1014.2
20170819143502 82 153 0.0 2.0 0.00 0.59 0.17 74 1014.2
20170819143005 82 176 0.0 2.0 0.00 0.59 0.17 74 1014.2
20170819142508 82 158 0.0 2.0 0.00 0.59 0.17 75 1014.2
20170819142006 82 14 0.0 1.0 0.00 0.59 0.17 77 1014.1
20170819141511 81 110 0.0 1.0 0.00 0.59 0.17 77 1014.1
20170819141013 81 87 0.0 0.0 0.00 0.59 0.17 77 1014.1
20170819140517 81 14 0.0 1.0 0.00 0.59 0.17 80 1014.2
20170819135957 80 253 0.0 1.0 0.00 0.59 0.17 81 1014.2
20170819135503 80 337 0.0 1.0 0.00 0.59 0.17 86 1014.2
20170819135003 80 37 0.0 0.0 0.00 0.59 0.17 84 1014.2
20170819134510 80 37 0.0 0.0 0.00 0.59 0.17 87 1014.1
20170819133958 80 37 0.0 0.0 0.00 0.59 0.17 86 1014.1
20170819133502 80 18 0.0 0.0 0.00 0.59 0.17 85 1014.1
20170819133003 80 18 0.0 0.0 0.00 0.59 0.17 87 1014.0
20170819132510 80 18 0.0 1.0 0.00 0.59 0.17 86 1013.9
20170819132011 80 18 0.0 1.0 0.00 0.59 0.17 87 1013.8
20170819131518 80 360 0.0 0.0 0.00 0.59 0.17 87 1013.8
20170819131016 80 360 0.0 2.0 0.00 0.59 0.17 90 1013.8
20170819130459 80 360 0.0 2.0 0.00 0.59 0.17 89 1013.8
20170819130001 80 345 0.0 0.0 0.00 0.59 0.17 87 1013.7
20170819125507 81 20 0.0 1.0 0.00 0.59 0.17 88 1013.7
20170819125006 80 20 0.0 1.0 0.00 0.59 0.17 88 1013.5
20170819124516 80 76 0.0 0.0 0.00 0.59 0.17 89 1013.7
20170819123959 80 55 0.0 0.0 0.00 0.59 0.17 91 1013.5
20170819123504 79 41 0.0 0.0 0.00 0.59 0.17 93 1013.4
20170819123006 77 41 0.0 0.0 0.00 0.59 0.17 94 1013.3
20170819122513 77 41 0.0 0.0 0.00 0.59 0.17 96 1013.3
20170819122011 76 41 0.0 0.0 0.00 0.59 0.17 96 1013.3
20170819121517 76 41 0.0 0.0 0.00 0.59 0.17 96 1013.3
20170819120958 76 40 0.0 0.0 0.00 0.59 0.17 96 1013.4
20170819120503 76 43 0.0 0.0 0.00 0.59 0.17 96 1013.4
20170819120005 76 43 0.0 0.0 0.00 0.59 0.17 96 1013.3
20170819115512 76 43 0.0 0.0 0.00 0.59 0.17 96 1013.3
20170819115015 76 43 0.0 0.0 0.00 0.59 0.17 96 1013.2
20170819114459 76 43 0.0 0.0 0.00 0.59 0.17 96 1013.2
20170819114003 75 43 0.0 0.0 0.00 0.59 0.17 96 1013.0
20170819113508 75 43 0.0 0.0 0.00 0.59 0.17 96 1013.0
20170819113009 75 43 0.0 0.0 0.00 0.59 0.17 96 1013.0
20170819112515 75 43 0.0 0.0 0.00 0.59 0.17 96 1012.9
20170819112013 75 43 0.0 0.0 0.00 0.59 0.17 96 1012.8
20170819111458 75 43 0.0 0.0 0.00 0.59 0.17 96 1012.8
20170819111000 75 43 0.0 0.0 0.00 0.59 0.17 96 1012.7
20170819110503 75 43 0.0 0.0 0.00 0.59 0.17 96 1012.7
20170819110005 75 43 0.0 0.0 0.00 0.59 0.17 96 1012.7
20170819105516 75 43 0.0 0.0 0.00 0.59 0.17 96 1012.6
20170819105015 75 43 0.0 0.0 0.00 0.59 0.17 96 1012.6
20170819104501 75 43 0.0 0.0 0.00 0.59 0.17 96 1012.6
20170819104002 75 25 0.0 0.0 0.00 0.59 0.17 96 1012.5
20170819103505 75 25 0.0 0.0 0.00 0.59 0.17 96 1012.5
20170819103008 75 25 0.0 0.0 0.00 0.59 0.17 96 1012.4
20170819102515 75 25 0.0 0.0 0.00 0.59 0.17 96 1012.3
20170819102014 75 25 0.0 0.0 0.00 0.59 0.17 96 1012.2
20170819101500 75 25 0.0 0.0 0.00 0.59 0.17 96 1012.1
20170819101000 75 25 0.0 0.0 0.00 0.59 0.17 96 1012.1
20170819100503 75 25 0.0 0.0 0.00 0.59 0.17 96 1012.0
20170819095507 75 25 0.0 0.0 0.00 0.59 0.17 96 1011.8
20170819095011 75 25 0.0 2.0 0.00 0.59 0.17 96 1011.8
20170819094501 75 25 0.0 2.0 0.00 0.59 0.17 96 1011.9
20170819094003 75 45 0.0 1.0 0.00 0.59 0.17 96 1012.0
20170819093507 75 360 0.0 0.0 0.00 0.59 0.17 96 1011.9
20170819093011 75 4 0.0 0.0 0.00 0.59 0.17 96 1011.9
20170819092500 75 4 0.0 0.0 0.00 0.59 0.17 96 1011.8
20170819091007 75 9 0.0 1.0 0.00 0.59 0.17 96 1011.9
20170819090511 75 4 0.0 1.0 0.00 0.59 0.17 96 1011.9
20170819090010 75 271 0.0 0.0 0.00 0.59 0.17 96 1011.9
20170819085501 74 271 0.0 0.0 0.00 0.59 0.17 96 1011.9
20170819084959 74 268 0.0 0.0 0.00 0.59 0.17 96 1011.8
20170819084506 74 205 0.0 0.0 0.00 0.59 0.17 96 1011.8
20170819084007 74 207 0.0 0.0 0.00 0.59 0.17 95 1011.7
20170819083510 74 207 0.0 0.0 0.00 0.59 0.17 95 1011.6
20170819083012 74 207 0.0 0.0 0.00 0.59 0.17 95 1011.6
20170819082458 74 207 0.0 0.0 0.00 0.59 0.17 95 1011.6
20170819081500 75 255 0.0 2.0 0.00 0.59 0.17 95 1011.5
20170819081002 75 255 0.0 2.0 0.00 0.59 0.17 95 1011.5
20170819080505 75 216 0.0 1.0 0.00 0.59 0.17 95 1011.6
20170819080007 75 181 0.0 0.0 0.00 0.59 0.17 95 1011.8
20170819075513 75 181 0.0 0.0 0.00 0.59 0.17 95 1011.8
20170819074517 75 181 0.0 2.0 0.00 0.59 0.17 95 1011.7
20170819073958 75 211 0.0 2.0 0.00 0.59 0.17 95 1011.8
20170819073502 75 160 0.0 2.0 0.00 0.59 0.17 95 1011.8
20170819073004 75 160 0.0 2.0 0.00 0.59 0.17 95 1011.8
20170819072510 75 70 0.0 2.0 0.00 0.59 0.17 95 1011.8
20170819072010 75 74 0.0 2.0 0.00 0.59 0.17 96 1011.8
20170819071517 75 201 0.0 2.0 0.00 0.59 0.17 95 1011.7
20170819071017 75 209 1.0 2.0 0.00 0.59 0.17 95 1011.7
20170819070505 75 188 0.0 1.0 0.00 0.59 0.17 95 1011.7
20170819070007 75 218 0.0 2.0 0.00 0.59 0.17 95 1011.8
20170819065514 75 218 0.0 4.0 0.00 0.59 0.17 95 1011.8
20170819065014 75 257 1.0 4.0 0.00 0.59 0.17 95 1011.7
20170819064500 75 132 0.0 4.0 0.00 0.59 0.17 95 1011.9
20170819064001 75 207 1.0 4.0 0.00 0.59 0.17 95 1012.0
20170819063506 75 159 0.0 2.0 0.00 0.59 0.17 95 1012.0
20170819063009 75 224 1.0 2.0 0.01 0.59 0.17 95 1012.0
20170819062517 75 215 0.0 2.0 0.01 0.59 0.17 95 1011.9
20170819062034 75 233 0.0 3.0 0.01 0.59 0.17 95 1011.8
20170819061502 75 194 0.0 2.0 0.01 0.59 0.17 95 1011.8
20170819061011 75 220 0.0 0.0 0.01 0.59 0.17 95 1011.8
20170819060516 75 220 0.0 0.0 0.02 0.59 0.17 95 1011.9
20170819060017 75 220 0.0 0.0 0.04 0.59 0.17 95 1011.8
20170819055504 75 220 0.0 0.0 0.05 0.59 0.17 95 1011.9
20170819055000 75 220 0.0 0.0 0.06 0.59 0.17 95 1011.8
20170819054506 75 220 0.0 0.0 0.08 0.59 0.17 95 1011.8
20170819054006 75 220 0.0 0.0 0.09 0.59 0.17 95 1011.9
20170819053507 75 219 0.0 0.0 0.09 0.59 0.17 95 1012.0
20170819053007 75 219 0.0 0.0 0.10 0.58 0.16 95 1012.0
20170819052512 75 220 0.0 0.0 0.12 0.58 0.16 95 1012.0
20170819052006 75 220 0.0 2.0 0.16 0.58 0.16 95 1012.1
20170819051510 75 249 0.0 4.0 0.16 0.58 0.16 95 1012.3
20170819051012 75 136 1.0 4.0 0.15 0.57 0.15 94 1012.2
20170819050513 75 193 0.0 3.0 0.15 0.57 0.15 94 1012.4
20170819050013 75 178 0.0 3.0 0.12 0.54 0.12 94 1012.5
20170819045515 75 232 1.0 3.0 0.12 0.54 0.12 94 1012.6
20170819045011 75 244 1.0 4.0 0.11 0.53 0.11 94 1012.7
20170819044514 75 234 1.0 4.0 0.09 0.51 0.09 94 1012.7
20170819044013 75 204 1.0 3.0 0.08 0.50 0.08 94 1012.8
20170819043513 75 217 1.0 3.0 0.07 0.49 0.07 94 1012.9
20170819043011 76 193 0.0 1.0 0.06 0.48 0.06 94 1013.0
20170819042514 76 193 0.0 3.0 0.03 0.45 0.03 94 1012.9
20170819042009 76 160 1.0 3.0 0.00 0.42 0.00 93 1012.7
20170819041509 76 135 1.0 7.0 0.00 0.42 0.00 93 1012.7
20170819041010 76 136 2.0 7.0 0.00 0.42 0.00 93 1012.6
20170819040517 76 101 0.0 9.0 0.00 0.42 0.00 94 1012.7
20170819035959 76 146 1.0 9.0 0.00 0.42 0.43 94 1012.8
20170819035504 76 172 1.0 5.0 0.00 0.42 0.43 94 1012.7